This is the latest recevied weather packets stored in our database for station/object KC1BRV. If no packets are shown the sender has not sent any weather packets the latest 10 day(s).
| Time | Temp. | Humidity | Pressure | Rain* | Wind** | Luminosity | Snow |
|---|---|---|---|---|---|---|---|
| 1777569448 | 11.67° C | 91% | 1007.5 hPa | 0 mm | - | 129 W/m² | - |
| 1777569146 | 12.22° C | 90% | 1007.6 hPa | 0 mm | - | 105 W/m² | - |
| 1777568842 | 11.67° C | 90% | 1007.6 hPa | 0 mm | - | 175 W/m² | - |
| 1777568540 | 12.22° C | 91% | 1007.5 hPa | 0 mm | - | 213 W/m² | - |
| 1777568236 | 11.67° C | 93% | 1007.7 hPa | 0 mm | - | 332 W/m² | - |
| 1777567933 | 11.67° C | 92% | 1007.9 hPa | 0 mm | - | 274 W/m² | - |
| 1777567629 | 11.11° C | 92% | 1008 hPa | 0 mm | - | 177 W/m² | - |
| 1777567326 | 11.11° C | 93% | 1007.9 hPa | 0 mm | - | 190 W/m² | - |
| 1777567025 | 11.11° C | 92% | 1007.8 hPa | 0 mm | - | 178 W/m² | - |
| 1777566722 | 11.11° C | 93% | 1008.1 hPa | 0 mm | - | 225 W/m² | - |
| 1777566420 | 10.56° C | 93% | 1008.2 hPa | 0 mm | - | 314 W/m² | - |
| 1777566117 | 10.56° C | 94% | 1008.2 hPa | 0 mm | - | 269 W/m² | - |
| 1777565812 | 10.56° C | 95% | 1008.1 hPa | 0 mm | - | 264 W/m² | - |
| 1777565509 | 10.56° C | 95% | 1008.3 hPa | 0 mm | - | 197 W/m² | - |
| 1777565205 | 10.56° C | 96% | 1008.3 hPa | 0 mm | - | 173 W/m² | - |
| 1777564902 | 10.56° C | 96% | 1008.3 hPa | 0 mm | - | 171 W/m² | - |
| 1777564596 | 10.56° C | 96% | 1008.2 hPa | 0 mm | - | 119 W/m² | - |
| 1777564292 | 10° C | 96% | 1008.1 hPa | 0 mm | - | 190 W/m² | - |
| 1777563989 | 10° C | 96% | 1008.2 hPa | 1.78 mm | - | 199 W/m² | - |
| 1777563685 | 10° C | 96% | 1008.2 hPa | 3.05 mm | - | 135 W/m² | - |
| 1777563381 | 10° C | 96% | 1008.2 hPa | 3.05 mm | - | 111 W/m² | - |
| 1777563076 | 10° C | 96% | 1008.4 hPa | 1.78 mm | - | 150 W/m² | - |
| 1777562772 | 10° C | 96% | 1008.3 hPa | 0 mm | - | 117 W/m² | - |
| 1777562471 | 10° C | 96% | 1008.5 hPa | 0 mm | - | 61 W/m² | - |
| 1777562167 | 10° C | 96% | 1008.2 hPa | 3.05 mm | - | 38 W/m² | - |
* Rain latest hour (hover to see other rain measurements)
** Current wind speed in m/s (hover to see current wind gust speed)